CAS-2T & KS-1Q

Last updated on Sun Aug 09 2026 00:03:15 GMT+0000 (Coordinated Universal Time)

1 41847U 16066G 26220.45872971 .00000256 00000+0 45812-4 0 9994 2 41847 98.3795 295.5972 0340738 331.1475 27.1240 14.44800960512342
UTC large
Height (km)
Speed (km/s)
/
Latitude / Longitude
Inclination (degrees)
Orbital Period (minutes)
Azimuth
Elevation
Range (km)
Doppler Factor

Next 0 passes for location: London (51.5072 / 0.1276)

No passes found over London.
CAS-2T & KS-1Q